,,PA_Meas_PMT16A,,PR_Meas_QMR101_102,,RH_Meas_QMH101,,SR_Meas_QMS101,,TA_Meas_QMH101,,GenWind,,GenWind,
time,status,PA,status,PR,status,RH,status,SR,status,TA,status,DirAvg,status,SpdAvg,
2013-08-17, 00:00:05,VALID,917.829,VALID,0,VALID,94.82,VALID,0,VALID,19.9968,VALID,145,VALID,0,
2013-08-17, 00:01:05,VALID,917.813,VALID,0,VALID,94.9192,VALID,0,VALID,19.9968,VALID,145,VALID,0,
2013-08-17, 00:02:05,VALID,917.83,VALID,0,VALID,94.9649,VALID,0,VALID,20.0163,VALID,145,VALID,0,
2013-08-17, 00:03:05,VALID,917.818,VALID,0,VALID,94.9725,VALID,0,VALID,19.9773,VALID,145,VALID,0,
2013-08-17, 00:04:05,VALID,917.785,VALID,0,VALID,94.942,VALID,0,VALID,19.9203,VALID,144,VALID,0,
2013-08-17, 00:05:05,VALID,917.807,VALID,0,VALID,94.8963,VALID,0,VALID,19.8408,VALID,131,VALID,0,
2013-08-17, 00:06:05,VALID,917.767,VALID,0,VALID,94.9268,VALID,0,VALID,19.7628,VALID,121,VALID,0,
2013-08-17, 00:07:05,VALID,917.758,VALID,0,VALID,95.0564,VALID,0,VALID,19.7433,VALID,120,VALID,0,
2013-08-17, 00:08:05,VALID,917.766,VALID,0,VALID,95.1479,VALID,0,VALID,19.7253,VALID,120,VALID,0,
2013-08-17, 00:09:05,VALID,917.778,VALID,0,VALID,95.1707,VALID,0,VALID,19.6653,VALID,121,VALID,0,
2013-08-17, 00:10:05,VALID,917.758,VALID,0,VALID,95.1707,VALID,0,VALID,19.6443,VALID,119,VALID,0,
2013-08-17, 00:11:05,VALID,917.728,VALID,0,VALID,95.1402,VALID,0,VALID,19.6053,VALID,121,VALID,0,
2013-08-17, 00:12:05,VALID,917.741,VALID,0,VALID,95.1326,VALID,0,VALID,19.6053,VALID,125,VALID,0,
2013-08-17, 00:13:05,VALID,917.786,VALID,0,VALID,95.1479,VALID,0,VALID,19.5663,VALID,125,VALID,0,
2013-08-17, 00:14:05,VALID,917.79,VALID,0,VALID,95.1326,VALID,0,VALID,19.5648,VALID,134,VALID,0,
2013-08-17, 00:15:05,VALID,917.787,VALID,0,VALID,95.1707,VALID,0,VALID,19.6053,VALID,132,VALID,0,
2013-08-17, 00:16:05,VALID,917.756,VALID,0,VALID,95.1707,VALID,0,VALID,19.5858,VALID,131,VALID,0,
2013-08-17, 00:17:05,VALID,917.766,VALID,0,VALID,95.1402,VALID,0,VALID,19.5453,VALID,131,VALID,0,
2013-08-17, 00:18:05,VALID,917.737,VALID,0,VALID,95.186,VALID,0,VALID,19.5663,VALID,131,VALID,0,
2013-08-17, 00:19:05,VALID,917.73,VALID,0,VALID,95.2317,VALID,0,VALID,19.6053,VALID,131,VALID,0,
2013-08-17, 00:20:05,VALID,917.741,VALID,0,VALID,95.3156,VALID,0,VALID,19.6248,VALID,131,VALID,0,
2013-08-17, 00:21:05,VALID,917.688,VALID,0,VALID,95.3689,VALID,0,VALID,19.6458,VALID,131,VALID,0,
2013-08-17, 00:22:05,VALID,917.652,VALID,0,VALID,95.3918,VALID,0,VALID,19.6248,VALID,131,VALID,0,
2013-08-17, 00:23:05,VALID,917.64,VALID,0,VALID,95.4375,VALID,0,VALID,19.6248,VALID,131,VALID,0,
2013-08-17, 00:24:05,VALID,917.623,VALID,0,VALID,95.468,VALID,0,VALID,19.6248,VALID,131,VALID,0,
2013-08-17, 00:25:05,VALID,917.591,VALID,0,VALID,95.4985,VALID,0,VALID,19.6053,VALID,131,VALID,0,
2013-08-17, 00:26:05,VALID,917.578,VALID,0,VALID,95.5138,VALID,0,VALID,19.5663,VALID,131,VALID,0,
2013-08-17, 00:27:05,VALID,917.577,VALID,0,VALID,95.5519,VALID,0,VALID,19.5468,VALID,131,VALID,0,
2013-08-17, 00:28:05,VALID,917.523,VALID,0,VALID,95.59,VALID,0,VALID,19.5468,VALID,131,VALID,0,
2013-08-17, 00:29:05,VALID,917.525,VALID,0,VALID,95.6434,VALID,0,VALID,19.5453,VALID,131,VALID,0,
2013-08-17, 00:30:05,VALID,917.512,VALID,0,VALID,95.7196,VALID,0,VALID,19.5453,VALID,131,VALID,0,
2013-08-17, 00:31:05,VALID,917.513,VALID,0,VALID,95.773,VALID,0,VALID,19.5663,VALID,131,VALID,0,
2013-08-17, 00:32:05,VALID,917.497,VALID,0,VALID,95.7882,VALID,0,VALID,19.5663,VALID,131,VALID,0,
2013-08-17, 00:33:05,VALID,917.488,VALID,0,VALID,95.7806,VALID,0,VALID,19.5273,VALID,131,VALID,0,
2013-08-17, 00:34:05,VALID,917.478,VALID,0,VALID,95.8111,VALID,0,VALID,19.5093,VALID,131,VALID,0,
2013-08-17, 00:35:05,VALID,917.468,VALID,0,VALID,95.8187,VALID,0,VALID,19.4883,VALID,131,VALID,0,
2013-08-17, 00:36:05,VALID,917.469,VALID,0,VALID,95.8492,VALID,0,VALID,19.4883,VALID,131,VALID,0,
2013-08-17, 00:37:05,VALID,917.448,VALID,0,VALID,95.895,VALID,0,VALID,19.4493,VALID,129,VALID,0,
2013-08-17, 00:38:05,VALID,917.469,VALID,0,VALID,95.9178,VALID,0,VALID,19.4103,VALID,129,VALID,0,
2013-08-17, 00:39:05,VALID,917.456,VALID,0,VALID,95.9559,VALID,0,VALID,19.3713,VALID,129,VALID,0,
2013-08-17, 00:40:05,VALID,917.454,VALID,0,VALID,95.9864,VALID,0,VALID,19.3143,VALID,129,VALID,0,
2013-08-17, 00:41:05,VALID,917.478,VALID,0,VALID,96.0093,VALID,0,VALID,19.3143,VALID,132,VALID,0,
2013-08-17, 00:42:05,VALID,917.504,VALID,0,VALID,96.0932,VALID,0,VALID,19.3143,VALID,132,VALID,0,
2013-08-17, 00:43:05,VALID,917.495,VALID,0,VALID,96.1389,VALID,0,VALID,19.3338,VALID,132,VALID,0,
2013-08-17, 00:44:05,VALID,917.485,VALID,0,VALID,96.1694,VALID,0,VALID,19.2933,VALID,132,VALID,0,
2013-08-17, 00:45:05,VALID,917.483,VALID,0,VALID,96.1618,VALID,0,VALID,19.2558,VALID,132,VALID,0,
2013-08-17, 00:46:05,VALID,917.445,VALID,0,VALID,96.177,VALID,0,VALID,19.2168,VALID,132,VALID,0,
2013-08-17, 00:47:05,VALID,917.451,VALID,0,VALID,96.2075,VALID,0,VALID,19.1973,VALID,132,VALID,0,
2013-08-17, 00:48:05,VALID,917.447,VALID,0,VALID,96.2228,VALID,0,VALID,19.1778,VALID,132,VALID,0,
2013-08-17, 00:49:05,VALID,917.492,VALID,0,VALID,96.2609,VALID,0,VALID,19.1583,VALID,132,VALID,0,
2013-08-17, 00:50:05,VALID,917.429,VALID,0,VALID,96.2761,VALID,0,VALID,19.1583,VALID,132,VALID,0,
2013-08-17, 00:51:05,VALID,917.437,VALID,0,VALID,96.3142,VALID,0,VALID,19.1388,VALID,125,VALID,0,
2013-08-17, 00:52:05,VALID,917.42,VALID,0,VALID,96.3295,VALID,0,VALID,19.1359,VALID,120,VALID,0,
2013-08-17, 00:53:05,VALID,917.416,VALID,0,VALID,96.3905,VALID,0,VALID,19.1164,VALID,106,VALID,0,
2013-08-17, 00:54:05,VALID,917.397,VALID,0,VALID,96.4057,VALID,0,VALID,19.1763,VALID,118,VALID,0,
2013-08-17, 00:55:05,VALID,917.399,VALID,0,VALID,96.4438,VALID,0,VALID,19.1958,VALID,116,VALID,0,
2013-08-17, 00:56:05,VALID,917.389,VALID,0,VALID,96.4515,VALID,0,VALID,19.1973,VALID,108,VALID,0,
2013-08-17, 00:57:05,VALID,917.398,VALID,0,VALID,96.4819,VALID,0,VALID,19.2168,VALID,119,VALID,0,
2013-08-17, 00:58:05,VALID,917.383,VALID,0,VALID,96.5277,VALID,0,VALID,19.1763,VALID,102,VALID,0,
2013-08-17, 00:59:05,VALID,917.373,VALID,0,VALID,96.5048,VALID,0,VALID,19.1373,VALID,102,VALID,0,
2013-08-17, 01:00:05,VALID,917.347,VALID,0,VALID,96.5353,VALID,0,VALID,19.1178,VALID,102,VALID,0,
2013-08-17, 01:01:05,VALID,917.327,VALID,0,VALID,96.5277,VALID,0,VALID,19.0983,VALID,107,VALID,0,
2013-08-17, 01:02:05,VALID,917.351,VALID,0,VALID,96.5582,VALID,0,VALID,19.0983,VALID,106,VALID,0,
2013-08-17, 01:03:05,VALID,917.327,VALID,0,VALID,96.5658,VALID,0,VALID,19.0983,VALID,115,VALID,0,
2013-08-17, 01:04:05,VALID,917.276,VALID,0,VALID,96.5734,VALID,0,VALID,19.0593,VALID,116,VALID,0,
2013-08-17, 01:05:05,VALID,917.249,VALID,0,VALID,96.6039,VALID,0,VALID,19.0593,VALID,108,VALID,0,
2013-08-17, 01:06:05,VALID,917.244,VALID,0,VALID,96.6344,VALID,0.107441,VALID,19.0788,VALID,110,VALID,0,
2013-08-17, 01:07:05,VALID,917.239,VALID,0,VALID,96.6497,VALID,0,VALID,19.0788,VALID,103,VALID,0,
2013-08-17, 01:08:05,VALID,917.282,VALID,0,VALID,96.6573,VALID,0,VALID,19.0983,VALID,108,VALID,0,
2013-08-17, 01:09:05,VALID,917.27,VALID,0,VALID,96.6725,VALID,0,VALID,19.0983,VALID,115,VALID,0,
2013-08-17, 01:10:05,VALID,917.284,VALID,0,VALID,96.7107,VALID,0,VALID,19.1388,VALID,112,VALID,0,
2013-08-17, 01:11:05,VALID,917.269,VALID,0,VALID,96.7183,VALID,0,VALID,19.1178,VALID,126,VALID,0,
2013-08-17, 01:12:05,VALID,917.269,VALID,0,VALID,96.7259,VALID,0,VALID,19.0983,VALID,116,VALID,0,
2013-08-17, 01:13:05,VALID,917.231,VALID,0,VALID,96.7183,VALID,0,VALID,19.0788,VALID,120,VALID,0,
2013-08-17, 01:14:05,VALID,917.217,VALID,0,VALID,96.7488,VALID,0,VALID,19.0998,VALID,122,VALID,0,
2013-08-17, 01:15:05,VALID,917.227,VALID,0,VALID,96.7488,VALID,0,VALID,19.0803,VALID,133,VALID,0,
2013-08-17, 01:16:05,VALID,917.183,VALID,0,VALID,96.7488,VALID,0,VALID,19.1193,VALID,133,VALID,0,
2013-08-17, 01:17:05,VALID,917.172,VALID,0,VALID,96.7716,VALID,0,VALID,19.0998,VALID,129,VALID,0,
2013-08-17, 01:18:05,VALID,917.148,VALID,0,VALID,96.7793,VALID,0,VALID,19.0983,VALID,128,VALID,0,
2013-08-17, 01:19:05,VALID,917.124,VALID,0,VALID,96.8098,VALID,0,VALID,19.0998,VALID,130,VALID,0,
2013-08-17, 01:20:05,VALID,917.116,VALID,0,VALID,96.8021,VALID,0,VALID,19.0983,VALID,130,VALID,0,
2013-08-17, 01:21:05,VALID,917.098,VALID,0,VALID,96.7945,VALID,0,VALID,19.1178,VALID,137,VALID,0,
2013-08-17, 01:22:05,VALID,917.09,VALID,0,VALID,96.825,VALID,0,VALID,19.1178,VALID,138,VALID,0,
2013-08-17, 01:23:05,VALID,917.09,VALID,0,VALID,96.8174,VALID,0,VALID,19.1583,VALID,133,VALID,0,
2013-08-17, 01:24:05,VALID,917.09,VALID,0,VALID,96.8403,VALID,0,VALID,19.1373,VALID,162,VALID,0,
2013-08-17, 01:25:05,VALID,917.103,VALID,0,VALID,96.8326,VALID,0,VALID,19.1373,VALID,149,VALID,0,
2013-08-17, 01:26:05,VALID,917.062,VALID,0,VALID,96.8631,VALID,0,VALID,19.1178,VALID,144,VALID,0,
2013-08-17, 01:27:05,VALID,917.074,VALID,0,VALID,96.8479,VALID,0,VALID,19.1388,VALID,147,VALID,0,
2013-08-17, 01:28:05,VALID,917.057,VALID,0,VALID,96.8707,VALID,0,VALID,19.1373,VALID,148,VALID,0,
2013-08-17, 01:29:05,VALID,917.023,VALID,0,VALID,96.8631,VALID,0,VALID,19.1763,VALID,150,VALID,0,
2013-08-17, 01:30:05,VALID,916.991,VALID,0,VALID,96.8707,VALID,0,VALID,19.1763,VALID,143,VALID,0,
2013-08-17, 01:31:05,VALID,916.986,VALID,0,VALID,96.886,VALID,0,VALID,19.2168,VALID,122,VALID,0,
2013-08-17, 01:32:05,VALID,916.96,VALID,0,VALID,96.8936,VALID,0,VALID,19.2153,VALID,146,VALID,0,
2013-08-17, 01:33:05,VALID,916.953,VALID,0,VALID,96.886,VALID,0,VALID,19.1973,VALID,136,VALID,0,
2013-08-17, 01:34:05,VALID,916.934,VALID,0,VALID,96.9012,VALID,0,VALID,19.1568,VALID,141,VALID,0,
2013-08-17, 01:35:05,VALID,916.939,VALID,0,VALID,96.886,VALID,0,VALID,19.1568,VALID,130,VALID,0,
2013-08-17, 01:36:05,VALID,916.868,VALID,0,VALID,96.9012,VALID,0,VALID,19.0983,VALID,136,VALID,0,
2013-08-17, 01:37:05,VALID,916.912,VALID,0,VALID,96.886,VALID,0,VALID,19.0579,VALID,143,VALID,0,
2013-08-17, 01:38:05,VALID,916.853,VALID,0,VALID,96.9241,VALID,0,VALID,19.0413,VALID,125,VALID,0,
2013-08-17, 01:39:05,VALID,916.877,VALID,0,VALID,96.8936,VALID,0,VALID,19.0023,VALID,118,VALID,0,
2013-08-17, 01:40:05,VALID,916.871,VALID,0,VALID,96.9012,VALID,0,VALID,18.9424,VALID,127,VALID,0,
2013-08-17, 01:41:05,VALID,916.814,VALID,0,VALID,96.9089,VALID,0,VALID,18.9424,VALID,135,VALID,0,
2013-08-17, 01:42:05,VALID,916.814,VALID,0,VALID,96.9012,VALID,0,VALID,18.9229,VALID,114,VALID,0,
2013-08-17, 01:43:05,VALID,916.808,VALID,0,VALID,96.9241,VALID,0,VALID,18.9034,VALID,131,VALID,0,
2013-08-17, 01:44:05,VALID,916.793,VALID,0,VALID,96.9012,VALID,0,VALID,18.8839,VALID,124,VALID,0,
2013-08-17, 01:45:05,VALID,916.756,VALID,0,VALID,96.9317,VALID,0,VALID,18.8644,VALID,121,VALID,0,
2013-08-17, 01:46:05,VALID,916.782,VALID,0,VALID,96.9241,VALID,0,VALID,18.8644,VALID,128,VALID,0,
2013-08-17, 01:47:05,VALID,916.8,VALID,0,VALID,96.9241,VALID,0,VALID,18.8644,VALID,119,VALID,0,
2013-08-17, 01:48:05,VALID,916.806,VALID,0,VALID,96.9394,VALID,0,VALID,18.8658,VALID,121,VALID,0,
2013-08-17, 01:49:05,VALID,916.802,VALID,0,VALID,96.9317,VALID,0,VALID,18.8449,VALID,126,VALID,0,
2013-08-17, 01:50:05,VALID,916.794,VALID,0,VALID,96.9241,VALID,0,VALID,18.8463,VALID,112,VALID,0,
2013-08-17, 01:51:05,VALID,916.768,VALID,0,VALID,96.9317,VALID,0,VALID,18.8254,VALID,127,VALID,0,
2013-08-17, 01:52:05,VALID,916.797,VALID,0,VALID,96.9394,VALID,0,VALID,18.8254,VALID,119,VALID,0,
2013-08-17, 01:53:05,VALID,916.81,VALID,0,VALID,96.9317,VALID,0,VALID,18.8449,VALID,127,VALID,0,
2013-08-17, 01:54:05,VALID,916.805,VALID,0,VALID,96.9698,VALID,0,VALID,18.8059,VALID,121,VALID,0,
2013-08-17, 01:55:05,VALID,916.848,VALID,0,VALID,96.9546,VALID,0,VALID,18.8059,VALID,122,VALID,0,
2013-08-17, 01:56:05,VALID,916.837,VALID,0,VALID,96.9546,VALID,0,VALID,18.8059,VALID,123,VALID,0,
2013-08-17, 01:57:05,VALID,916.858,VALID,0,VALID,96.9546,VALID,0,VALID,18.7864,VALID,123,VALID,0,
2013-08-17, 01:58:05,VALID,916.885,VALID,0,VALID,96.9927,VALID,0,VALID,18.7864,VALID,127,VALID,0,
2013-08-17, 01:59:05,VALID,916.894,VALID,0,VALID,96.9622,VALID,0,VALID,18.7864,VALID,128,VALID,0,
2013-08-17, 02:00:05,VALID,916.897,VALID,0,VALID,96.9698,VALID,0,VALID,18.7864,VALID,125,VALID,0,
2013-08-17, 02:01:05,VALID,916.898,VALID,0,VALID,96.9698,VALID,0,VALID,18.7669,VALID,125,VALID,0,
2013-08-17, 02:02:05,VALID,916.865,VALID,0,VALID,96.9698,VALID,0,VALID,18.7669,VALID,127,VALID,0,
2013-08-17, 02:03:05,VALID,916.86,VALID,0,VALID,96.9622,VALID,0,VALID,18.7878,VALID,128,VALID,0,
2013-08-17, 02:04:05,VALID,916.814,VALID,0,VALID,96.9927,VALID,0.107441,VALID,18.7474,VALID,131,VALID,0,
2013-08-17, 02:05:05,VALID,916.797,VALID,0,VALID,96.9622,VALID,0,VALID,18.7669,VALID,130,VALID,0,
2013-08-17, 02:06:05,VALID,916.783,VALID,0,VALID,96.9775,VALID,0,VALID,18.7279,VALID,129,VALID,0,
2013-08-17, 02:07:05,VALID,916.776,VALID,0,VALID,96.9698,VALID,0,VALID,18.7084,VALID,129,VALID,0,
2013-08-17, 02:08:05,VALID,916.756,VALID,0,VALID,96.9775,VALID,0,VALID,18.7293,VALID,124,VALID,0,
2013-08-17, 02:09:05,VALID,916.771,VALID,0,VALID,96.9698,VALID,0,VALID,18.6903,VALID,124,VALID,0,
2013-08-17, 02:10:05,VALID,916.765,VALID,0,VALID,96.9927,VALID,0,VALID,18.6903,VALID,123,VALID,0,
2013-08-17, 02:11:05,VALID,916.751,VALID,0,VALID,96.9775,VALID,0,VALID,18.6889,VALID,99,VALID,0,
2013-08-17, 02:12:05,VALID,916.804,VALID,0,VALID,96.9927,VALID,0,VALID,18.7084,VALID,99,VALID,0,
2013-08-17, 02:13:05,VALID,916.795,VALID,0,VALID,96.9775,VALID,0,VALID,18.7279,VALID,99,VALID,0,
2013-08-17, 02:14:05,VALID,916.806,VALID,0,VALID,96.9927,VALID,0,VALID,18.7669,VALID,99,VALID,0,
2013-08-17, 02:15:05,VALID,916.805,VALID,0,VALID,97.008,VALID,0,VALID,18.8073,VALID,99,VALID,0,
2013-08-17, 02:16:05,VALID,916.813,VALID,0,VALID,97.0156,VALID,0,VALID,18.8059,VALID,101,VALID,0,
2013-08-17, 02:17:05,VALID,916.817,VALID,0,VALID,97.0232,VALID,0,VALID,18.8254,VALID,104,VALID,0,
2013-08-17, 02:18:05,VALID,916.818,VALID,0,VALID,97.0156,VALID,0,VALID,18.8268,VALID,118,VALID,0,
2013-08-17, 02:19:05,VALID,916.801,VALID,0,VALID,97.0003,VALID,0,VALID,18.7864,VALID,118,VALID,0,
2013-08-17, 02:20:05,VALID,916.742,VALID,0,VALID,97.0003,VALID,0,VALID,18.7669,VALID,118,VALID,0,
2013-08-17, 02:21:05,VALID,916.734,VALID,0,VALID,97.008,VALID,0,VALID,18.7864,VALID,118,VALID,0,
2013-08-17, 02:22:05,VALID,916.745,VALID,0,VALID,97.0003,VALID,0,VALID,18.7474,VALID,118,VALID,0,
2013-08-17, 02:23:05,VALID,916.72,VALID,0,VALID,96.9851,VALID,0,VALID,18.7279,VALID,118,VALID,0,
2013-08-17, 02:24:05,VALID,916.744,VALID,0,VALID,96.9851,VALID,0,VALID,18.7084,VALID,118,VALID,0,
2013-08-17, 02:25:05,VALID,916.739,VALID,0,VALID,96.9927,VALID,0,VALID,18.7084,VALID,118,VALID,0,
2013-08-17, 02:26:05,VALID,916.753,VALID,0,VALID,96.9851,VALID,0,VALID,18.7098,VALID,118,VALID,0,
2013-08-17, 02:27:05,VALID,916.745,VALID,0,VALID,96.9851,VALID,0,VALID,18.668,VALID,118,VALID,0,
2013-08-17, 02:28:05,VALID,916.768,VALID,0,VALID,96.9851,VALID,0,VALID,18.7279,VALID,118,VALID,0,
2013-08-17, 02:29:05,VALID,916.731,VALID,0,VALID,96.9851,VALID,0,VALID,18.7474,VALID,118,VALID,0,
2013-08-17, 02:30:05,VALID,916.716,VALID,0,VALID,96.9851,VALID,0,VALID,18.7279,VALID,118,VALID,0,
2013-08-17, 02:31:05,VALID,916.712,VALID,0,VALID,97.0003,VALID,0,VALID,18.7084,VALID,118,VALID,0,
2013-08-17, 02:32:05,VALID,916.655,VALID,0,VALID,96.9698,VALID,0,VALID,18.6889,VALID,118,VALID,0,
2013-08-17, 02:33:04,VALID,916.654,VALID,0,VALID,96.9775,VALID,0,VALID,18.6708,VALID,118,VALID,0,
2013-08-17, 02:34:04,VALID,916.641,VALID,0,VALID,96.9546,VALID,0,VALID,18.6889,VALID,118,VALID,0,
2013-08-17, 02:35:04,VALID,916.652,VALID,0,VALID,96.9698,VALID,0,VALID,18.6513,VALID,118,VALID,0,
2013-08-17, 02:36:04,VALID,916.617,VALID,0,VALID,96.9698,VALID,0,VALID,18.6109,VALID,118,VALID,0,
2013-08-17, 02:37:04,VALID,916.608,VALID,0,VALID,96.9775,VALID,0,VALID,18.572,VALID,118,VALID,0,
2013-08-17, 02:38:04,VALID,916.621,VALID,0,VALID,96.9394,VALID,0,VALID,18.5929,VALID,127,VALID,0,
2013-08-17, 02:39:04,VALID,916.626,VALID,0,VALID,96.9546,VALID,0,VALID,18.5135,VALID,125,VALID,0,
2013-08-17, 02:40:04,VALID,916.625,VALID,0,VALID,96.947,VALID,0,VALID,18.533,VALID,126,VALID,0,
2013-08-17, 02:41:04,VALID,916.623,VALID,0,VALID,96.9546,VALID,0,VALID,18.533,VALID,131,VALID,0,
2013-08-17, 02:42:04,VALID,916.606,VALID,0,VALID,96.9622,VALID,0,VALID,18.5539,VALID,116,VALID,0,
2013-08-17, 02:43:04,VALID,916.592,VALID,0,VALID,96.947,VALID,0,VALID,18.494,VALID,116,VALID,0,
2013-08-17, 02:44:04,VALID,916.563,VALID,0,VALID,96.9394,VALID,0,VALID,18.4759,VALID,107,VALID,0,
2013-08-17, 02:45:04,VALID,916.547,VALID,0,VALID,96.9622,VALID,0,VALID,18.4759,VALID,112,VALID,0,
2013-08-17, 02:46:04,VALID,916.573,VALID,0,VALID,96.9394,VALID,0,VALID,18.4564,VALID,128,VALID,0,
2013-08-17, 02:47:04,VALID,916.581,VALID,0,VALID,96.9394,VALID,0,VALID,18.4369,VALID,117,VALID,0,
2013-08-17, 02:48:04,VALID,916.533,VALID,0,VALID,96.9317,VALID,0,VALID,18.416,VALID,105,VALID,0,
2013-08-17, 02:49:04,VALID,916.515,VALID,0,VALID,96.9317,VALID,0,VALID,18.4564,VALID,118,VALID,0,
2013-08-17, 02:50:04,VALID,916.541,VALID,0,VALID,96.9546,VALID,0,VALID,18.5149,VALID,128,VALID,0,
2013-08-17, 02:51:04,VALID,916.535,VALID,0,VALID,96.9546,VALID,0,VALID,18.5358,VALID,122,VALID,0,
2013-08-17, 02:52:04,VALID,916.515,VALID,0,VALID,96.9546,VALID,0,VALID,18.5344,VALID,122,VALID,0,
2013-08-17, 02:53:04,VALID,916.521,VALID,0,VALID,96.9546,VALID,0,VALID,18.5539,VALID,133,VALID,0,
2013-08-17, 02:54:04,VALID,916.503,VALID,0,VALID,96.9698,VALID,0,VALID,18.572,VALID,125,VALID,0,
2013-08-17, 02:55:04,VALID,916.479,VALID,0,VALID,96.9698,VALID,0,VALID,18.6124,VALID,124,VALID,0,
2013-08-17, 02:56:04,VALID,916.494,VALID,0,VALID,96.9698,VALID,0,VALID,18.6109,VALID,114,VALID,0,
2013-08-17, 02:57:04,VALID,916.512,VALID,0,VALID,96.9775,VALID,0,VALID,18.6513,VALID,126,VALID,0,
2013-08-17, 02:58:04,VALID,916.546,VALID,0,VALID,96.9394,VALID,0,VALID,18.6903,VALID,131,VALID,0,
2013-08-17, 02:59:04,VALID,916.557,VALID,0,VALID,96.9622,VALID,0,VALID,18.6903,VALID,126,VALID,0,
2013-08-17, 03:00:04,VALID,916.594,VALID,0,VALID,96.9394,VALID,0,VALID,18.7293,VALID,113,VALID,0,
2013-08-17, 03:01:04,VALID,916.591,VALID,0,VALID,96.9317,VALID,0,VALID,18.7279,VALID,122,VALID,0,
2013-08-17, 03:02:04,VALID,916.592,VALID,0,VALID,96.9241,VALID,0,VALID,18.7683,VALID,116,VALID,0,
2013-08-17, 03:03:04,VALID,916.643,VALID,0,VALID,96.8936,VALID,0,VALID,18.7488,VALID,105,VALID,0,
2013-08-17, 03:04:04,VALID,916.596,VALID,0,VALID,96.8631,VALID,0,VALID,18.7878,VALID,106,VALID,0,
2013-08-17, 03:05:04,VALID,916.602,VALID,0,VALID,96.8403,VALID,0,VALID,18.7474,VALID,110,VALID,0,
2013-08-17, 03:06:04,VALID,916.565,VALID,0,VALID,96.825,VALID,0,VALID,18.7683,VALID,109,VALID,0,
2013-08-17, 03:07:04,VALID,916.571,VALID,0,VALID,96.8098,VALID,0,VALID,18.7669,VALID,108,VALID,0,
2013-08-17, 03:08:04,VALID,916.531,VALID,0,VALID,96.7869,VALID,0,VALID,18.8073,VALID,114,VALID,0,
2013-08-17, 03:09:04,VALID,916.57,VALID,0,VALID,96.764,VALID,0,VALID,18.8073,VALID,104,VALID,0,
2013-08-17, 03:10:04,VALID,916.557,VALID,0,VALID,96.7488,VALID,0,VALID,18.8073,VALID,119,VALID,0,
2013-08-17, 03:11:04,VALID,916.558,VALID,0,VALID,96.7183,VALID,0,VALID,18.8658,VALID,120,VALID,0,
2013-08-17, 03:12:04,VALID,916.55,VALID,0,VALID,96.7183,VALID,0,VALID,18.8853,VALID,111,VALID,0,
2013-08-17, 03:13:04,VALID,916.539,VALID,0,VALID,96.6725,VALID,0,VALID,18.8853,VALID,103,VALID,0,
2013-08-17, 03:14:04,VALID,916.528,VALID,0,VALID,96.6344,VALID,0,VALID,18.8853,VALID,114,VALID,0,
2013-08-17, 03:15:04,VALID,916.517,VALID,0,VALID,96.5963,VALID,0,VALID,18.9048,VALID,99,VALID,0,
2013-08-17, 03:16:04,VALID,916.514,VALID,0,VALID,96.5658,VALID,0,VALID,18.8853,VALID,104,VALID,0,
2013-08-17, 03:17:04,VALID,916.489,VALID,0,VALID,96.5124,VALID,0,VALID,18.9048,VALID,107,VALID,0,
2013-08-17, 03:18:04,VALID,916.486,VALID,0,VALID,96.4819,VALID,0,VALID,18.8853,VALID,110,VALID,0,
2013-08-17, 03:19:04,VALID,916.486,VALID,0,VALID,96.4591,VALID,0,VALID,18.9048,VALID,108,VALID,0,
2013-08-17, 03:20:04,VALID,916.487,VALID,0,VALID,96.421,VALID,0,VALID,18.9048,VALID,114,VALID,0,
2013-08-17, 03:21:04,VALID,916.468,VALID,0,VALID,96.36,VALID,0,VALID,18.9048,VALID,121,VALID,0,
2013-08-17, 03:22:04,VALID,916.445,VALID,0,VALID,96.3219,VALID,0,VALID,18.8658,VALID,110,VALID,0,
2013-08-17, 03:23:04,VALID,916.454,VALID,0,VALID,96.2761,VALID,0,VALID,18.8853,VALID,107,VALID,0,
2013-08-17, 03:24:04,VALID,916.437,VALID,0,VALID,96.238,VALID,0,VALID,18.8853,VALID,106,VALID,0,
2013-08-17, 03:25:04,VALID,916.426,VALID,0,VALID,96.1923,VALID,0,VALID,18.8839,VALID,111,VALID,0,
2013-08-17, 03:26:04,VALID,916.404,VALID,0,VALID,96.1389,VALID,0,VALID,18.8853,VALID,113,VALID,0,
2013-08-17, 03:27:04,VALID,916.411,VALID,0,VALID,96.0932,VALID,0,VALID,18.8658,VALID,115,VALID,0,
2013-08-17, 03:28:04,VALID,916.438,VALID,0,VALID,96.0093,VALID,0,VALID,18.8463,VALID,115,VALID,0,
2013-08-17, 03:29:04,VALID,916.426,VALID,0,VALID,95.9636,VALID,0,VALID,18.8059,VALID,115,VALID,0,
2013-08-17, 03:30:04,VALID,916.402,VALID,0,VALID,95.9026,VALID,0,VALID,18.8268,VALID,115,VALID,0,
2013-08-17, 03:31:04,VALID,916.395,VALID,0,VALID,95.895,VALID,0,VALID,18.7864,VALID,115,VALID,0,
2013-08-17, 03:32:04,VALID,916.39,VALID,0,VALID,95.8492,VALID,0,VALID,18.8073,VALID,115,VALID,0,
2013-08-17, 03:33:04,VALID,916.371,VALID,0,VALID,95.8187,VALID,0,VALID,18.7864,VALID,115,VALID,0,
2013-08-17, 03:34:04,VALID,916.34,VALID,0,VALID,95.7272,VALID,0,VALID,18.7683,VALID,115,VALID,0,
2013-08-17, 03:35:04,VALID,916.32,VALID,0,VALID,95.6815,VALID,0,VALID,18.7279,VALID,115,VALID,0,
2013-08-17, 03:36:04,VALID,916.285,VALID,0,VALID,95.6739,VALID,0,VALID,18.7279,VALID,115,VALID,0,
2013-08-17, 03:37:04,VALID,916.31,VALID,0,VALID,95.6739,VALID,0,VALID,18.7488,VALID,115,VALID,0,
2013-08-17, 03:38:04,VALID,916.26,VALID,0,VALID,95.6739,VALID,0,VALID,18.7488,VALID,115,VALID,0,
2013-08-17, 03:39:04,VALID,916.291,VALID,0,VALID,95.6357,VALID,0,VALID,18.7293,VALID,115,VALID,0,
2013-08-17, 03:40:04,VALID,916.302,VALID,0,VALID,95.6815,VALID,0,VALID,18.7683,VALID,115,VALID,0,
2013-08-17, 03:41:04,VALID,916.3,VALID,0,VALID,95.6739,VALID,0,VALID,18.7488,VALID,115,VALID,0,
2013-08-17, 03:42:04,VALID,916.271,VALID,0,VALID,95.59,VALID,0,VALID,18.7084,VALID,115,VALID,0,
2013-08-17, 03:43:04,VALID,916.268,VALID,0,VALID,95.5671,VALID,0,VALID,18.7084,VALID,115,VALID,0,
2013-08-17, 03:44:04,VALID,916.27,VALID,0,VALID,95.5824,VALID,0,VALID,18.6903,VALID,115,VALID,0,
2013-08-17, 03:45:04,VALID,916.292,VALID,0,VALID,95.5519,VALID,0,VALID,18.7098,VALID,115,VALID,0,
2013-08-17, 03:46:04,VALID,916.295,VALID,0,VALID,95.5595,VALID,0.107441,VALID,18.6694,VALID,115,VALID,0,
2013-08-17, 03:47:04,VALID,916.266,VALID,0,VALID,95.529,VALID,0,VALID,18.6513,VALID,118,VALID,0,
2013-08-17, 03:48:04,VALID,916.289,VALID,0,VALID,95.5214,VALID,0.107441,VALID,18.6319,VALID,120,VALID,0,
2013-08-17, 03:49:04,VALID,916.278,VALID,0,VALID,95.5519,VALID,0,VALID,18.5914,VALID,120,VALID,0,
2013-08-17, 03:50:04,VALID,916.28,VALID,0,VALID,95.5519,VALID,0,VALID,18.5929,VALID,130,VALID,0,
2013-08-17, 03:51:04,VALID,916.314,VALID,0,VALID,95.5519,VALID,0.107441,VALID,18.5135,VALID,137,VALID,0,
2013-08-17, 03:52:04,VALID,916.321,VALID,0,VALID,95.6129,VALID,0.107441,VALID,18.5344,VALID,137,VALID,0,
2013-08-17, 03:53:04,VALID,916.349,VALID,0,VALID,95.712,VALID,0,VALID,18.5539,VALID,137,VALID,0,
2013-08-17, 03:54:04,VALID,916.375,VALID,0,VALID,95.7806,VALID,0,VALID,18.5149,VALID,137,VALID,0,
2013-08-17, 03:55:04,VALID,916.379,VALID,0,VALID,95.7806,VALID,0,VALID,18.4954,VALID,137,VALID,0,
2013-08-17, 03:56:04,VALID,916.389,VALID,0,VALID,95.7654,VALID,0,VALID,18.4564,VALID,139,VALID,0,
2013-08-17, 03:57:04,VALID,916.382,VALID,0,VALID,95.7882,VALID,0,VALID,18.3965,VALID,139,VALID,0,
2013-08-17, 03:58:04,VALID,916.384,VALID,0,VALID,95.7806,VALID,0,VALID,18.3589,VALID,139,VALID,0,
2013-08-17, 03:59:04,VALID,916.365,VALID,0,VALID,95.7349,VALID,0.107441,VALID,18.299,VALID,139,VALID,0,